Stations météo

réclame
Mon MeteoGroup
Le Talut, France (7207): Température de l'air & dewpoint: 19.11.2017 02:00:00 - 25.11.2017 02:00:00 (CET)Le Talut, France (7207): Vitesse du vent & gusts: 19.11.2017 02:00:00 - 25.11.2017 02:00:00 (CET)Le Talut, France (7207): Direction du vent: 19.11.2017 02:00:00 - 25.11.2017 02:00:00 (CET)Le Talut, France (7207): reduced air pressure: 19.11.2017 02:00:00 - 25.11.2017 02:00:00 (CET)Le Talut, France (7207): visibility: 19.11.2017 02:00:00 - 25.11.2017 02:00:00 (CET)Le Talut, France (7207): Quantités de précipitations: 19.11.2017 02:00:00 - 25.11.2017 02:00:00 (CET)
Date & Time tt [°C] td [°C] ff [km/h] ff [knt] fx [km/h] fx [knt] dd ppp [hPa] vv [km] rr [mm]
25.11.2017 02:00:00 10,0 5,8 29 16 47 25 NW 1016,0 - 0,0
25.11.2017 01:00:00 9,6 5,4 23 12 55 30 NW 1015,6 - 0,4
25.11.2017 00:00:00 10,9 6,8 22 12 35 19 W 1015,2 - 0,0
24.11.2017 23:00:00 10,7 5,2 19 10 60 32 W 1015,1 - 0,4
24.11.2017 22:00:00 11,3 6,6 21 11 35 19 W 1015,3 - 0,0
24.11.2017 21:00:00 10,8 6,2 18 10 40 21 W 1015,3 - 0,2
24.11.2017 20:00:00 10,8 5,3 24 13 40 22 WNW 1015,5 - 0,0
24.11.2017 19:00:00 11,5 6,0 19 10 29 16 W 1015,2 15 0,0
24.11.2017 18:00:00 11,5 6,2 18 10 29 16 W 1015,1 - 0,0
24.11.2017 17:00:00 11,4 6,5 16 9 25 13 W 1014,7 - 0,0
24.11.2017 16:00:00 11,4 7,3 11 6 27 14 WNW 1014,5 18 0,0
24.11.2017 15:00:00 12,3 8,0 11 6 25 13 WNW 1014,6 - 0,0
24.11.2017 14:00:00 11,9 8,0 21 11 31 17 NW 1014,7 - 0,0
24.11.2017 13:00:00 12,1 9,3 23 12 44 24 W 1014,7 8 0,0
24.11.2017 12:00:00 12,6 9,2 15 8 27 15 WSW 1014,8 - 0,0
24.11.2017 11:00:00 12,2 9,2 13 7 21 11 WSW 1014,9 - 0,0
24.11.2017 10:00:00 11,5 8,0 8 4 31 17 WNW 1014,1 8 0,0
24.11.2017 09:00:00 11,2 8,2 13 7 21 12 W 1013,4 - 0,0
24.11.2017 08:00:00 9,5 7,9 8 5 13 7 NNW 1012,1 - 0,0
24.11.2017 07:00:00 9,3 7,6 10 5 29 16 NNW 1011,5 - 0,0
24.11.2017 06:00:00 10,7 9,1 23 12 40 21 NNW 1010,8 - 0,0
24.11.2017 05:00:00 11,8 10,4 29 15 45 25 NW 1010,1 - 0,0
24.11.2017 04:00:00 13,0 11,9 29 16 49 26 W 1009,2 - 0,0
24.11.2017 03:00:00 13,6 12,2 36 19 56 30 W 1008,6 - 0,0
24.11.2017 02:00:00 13,9 12,6 36 19 66 35 WSW 1008,2 - 0,0
24.11.2017 01:00:00 14,7 13,1 50 27 81 44 SW 1007,8 - 0,0
24.11.2017 00:00:00 14,9 13,1 57 31 86 46 SW 1007,4 - 0,2
23.11.2017 23:00:00 15,1 13,0 53 29 82 45 SW 1007,0 - 0,0
23.11.2017 22:00:00 14,4 13,4 50 27 69 38 SSW 1007,6 - 0,0
23.11.2017 21:00:00 13,8 12,7 45 25 58 32 S 1007,5 - 0,0
23.11.2017 20:00:00 13,6 13,0 43 23 55 30 S 1008,0 - 0,2
23.11.2017 19:00:00 13,4 12,8 24 13 42 23 S 1008,8 - 0,8
23.11.2017 18:00:00 12,7 11,8 15 8 22 12 SSE 1009,2 - 0,8
23.11.2017 17:00:00 13,1 10,3 12 7 19 11 S 1009,6 - 0,0
23.11.2017 16:00:00 13,0 9,6 10 6 16 9 SSW 1009,1 15 0,0
23.11.2017 15:00:00 13,9 9,3 10 6 22 12 WSW 1009,2 - 0,0
23.11.2017 14:00:00 14,5 10,1 15 8 24 13 W 1009,2 - 0,0
23.11.2017 13:00:00 14,0 10,6 10 6 29 16 WNW 1008,7 15 0,0
23.11.2017 12:00:00 13,6 11,6 15 8 50 27 WNW 1008,0 - 0,0
23.11.2017 11:00:00 14,5 12,2 29 16 47 25 WSW 1006,6 - 0,0
23.11.2017 10:00:00 14,3 12,3 29 16 53 28 WSW 1005,4 10 0,0
23.11.2017 09:00:00 14,1 12,8 31 17 68 37 SW 1004,4 - 0,4
23.11.2017 08:00:00 13,7 12,8 36 19 71 38 WSW 1002,9 - 2,2
23.11.2017 07:00:00 14,4 12,6 43 23 59 32 SW 1002,0 10 0,0
23.11.2017 06:00:00 14,2 12,6 35 19 62 34 SW 1001,0 - 0,0
23.11.2017 05:00:00 14,3 12,7 33 18 63 34 WSW 1000,4 - 0,0
23.11.2017 04:00:00 14,5 12,7 36 19 68 37 WSW 999,3 - 0,0
23.11.2017 03:00:00 14,8 12,8 44 24 82 44 WSW 998,4 - 0,0
23.11.2017 02:00:00 14,7 13,1 51 28 118 64 SW 997,1 - 1,6
23.11.2017 01:00:00 15,4 12,3 79 42 117 63 SSW 996,0 - 0,8
23.11.2017 00:00:00 15,9 11,3 68 37 99 53 SSW 996,6 - 0,0
22.11.2017 23:00:00 15,9 11,3 71 39 106 57 SSW 996,8 - 0,0
22.11.2017 22:00:00 15,6 12,0 49 26 64 35 SSW 997,6 - 0,0
22.11.2017 21:00:00 15,8 11,6 45 24 77 42 SSW 997,9 - 0,0
22.11.2017 20:00:00 16,6 10,9 54 29 79 43 S 998,3 - 0,0
22.11.2017 19:00:00 15,9 11,3 41 22 66 35 S 998,9 15 0,0
22.11.2017 18:00:00 15,7 11,5 39 21 59 32 S 1000,2 - 0,0
22.11.2017 17:00:00 16,1 11,3 47 26 58 31 SSW 1001,0 - 0,0
22.11.2017 16:00:00 15,7 11,5 42 23 54 29 S 1001,9 18 0,0
22.11.2017 15:00:00 15,7 11,9 37 20 49 26 S 1002,7 - 0,0
22.11.2017 14:00:00 15,5 11,7 36 19 54 29 S 1003,2 - 0,0
22.11.2017 13:00:00 15,2 11,8 32 18 48 26 S 1003,9 - 0,0
22.11.2017 12:00:00 14,9 12,2 33 18 49 26 S 1005,2 - 0,0
22.11.2017 11:00:00 14,7 12,6 29 16 39 21 S 1006,1 - 0,0
22.11.2017 10:00:00 14,3 12,3 29 16 44 24 S 1007,0 - 0,0
22.11.2017 09:00:00 14,1 11,6 32 18 44 24 S 1007,7 - 0,0
22.11.2017 08:00:00 13,8 11,5 34 18 49 26 S 1008,0 - 0,0
22.11.2017 07:00:00 14,0 11,7 36 19 48 26 S 1008,4 - 0,0
22.11.2017 06:00:00 14,2 11,2 33 18 42 23 S 1009,2 - 0,0
22.11.2017 05:00:00 13,9 11,1 29 16 42 23 S 1009,8 - 0,0
22.11.2017 04:00:00 14,0 11,3 31 17 41 22 S 1010,4 - 0,0
22.11.2017 03:00:00 13,9 11,4 27 15 35 19 S 1011,3 - 0,0
22.11.2017 02:00:00 13,9 11,2 24 13 34 18 SSW 1012,1 - 0,0
22.11.2017 01:00:00 13,8 12,2 26 14 36 19 SSW 1012,9 - 0,0
22.11.2017 00:00:00 13,7 12,4 24 13 33 18 SSW 1013,1 - 0,0
21.11.2017 23:00:00 13,7 12,9 21 11 29 16 SSW 1013,7 - 0,0
21.11.2017 22:00:00 13,7 12,9 22 12 32 17 SSW 1014,2 - 0,0
21.11.2017 21:00:00 13,8 12,9 20 11 32 17 SW 1014,6 - 0,0
21.11.2017 20:00:00 13,8 13,0 21 11 35 19 SW 1015,1 - 0,0
21.11.2017 19:00:00 14,0 13,2 20 11 26 14 SSW 1015,5 - 0,0
21.11.2017 18:00:00 14,0 13,0 18 10 27 15 SSW 1015,8 - 0,0
21.11.2017 17:00:00 14,1 13,0 20 11 28 15 SSW 1015,8 - 0,0
21.11.2017 16:00:00 14,1 12,8 20 11 28 15 SSW 1016,2 18 0,0
21.11.2017 15:00:00 14,1 12,5 22 12 31 17 SSW 1016,8 - 0,0
21.11.2017 14:00:00 14,2 12,2 25 13 36 19 SSW 1017,3 - 0,0
21.11.2017 13:00:00 14,1 12,3 22 12 32 17 SSW 1018,0 18 0,0
21.11.2017 12:00:00 14,1 12,7 19 10 26 14 SSW 1018,5 - 0,0
21.11.2017 11:00:00 14,1 12,0 16 9 32 17 SW 1018,7 - 0,0
21.11.2017 10:00:00 14,0 11,0 16 9 28 15 WSW 1018,5 18 0,0
21.11.2017 09:00:00 13,7 10,7 16 9 29 16 W 1018,5 - 0,0
21.11.2017 08:00:00 13,6 10,2 16 9 40 22 W 1018,1 - 0,0
21.11.2017 07:00:00 13,5 10,3 18 10 40 22 W 1018,1 - 0,0
21.11.2017 06:00:00 13,4 10,0 24 13 46 25 W 1018,4 - 0,0
21.11.2017 05:00:00 14,0 11,2 21 12 40 22 WSW 1018,2 - 0,0
21.11.2017 04:00:00 13,8 12,2 22 12 38 21 SW 1018,5 - 0,0
21.11.2017 03:00:00 13,7 11,6 22 12 41 22 SW 1018,9 - 0,0
21.11.2017 02:00:00 13,6 11,8 26 14 41 22 SSW 1019,6 - 0,0
21.11.2017 01:00:00 13,2 11,8 29 16 45 24 SSW 1019,8 - 0,0
21.11.2017 00:00:00 13,0 11,4 30 16 42 23 S 1019,9 - 0,0
20.11.2017 23:00:00 13,0 11,4 31 17 43 23 S 1020,4 - 0,0
20.11.2017 22:00:00 13,0 11,2 29 16 40 22 S 1020,8 - 0,0
20.11.2017 21:00:00 13,0 11,1 26 14 35 19 S 1021,3 - 0,0
20.11.2017 20:00:00 13,0 10,7 27 15 35 19 S 1021,4 - 0,0
20.11.2017 19:00:00 13,3 10,1 25 13 39 21 S 1021,4 - 0,0
20.11.2017 18:00:00 13,3 10,3 25 13 39 21 SSW 1021,4 - 0,0
20.11.2017 17:00:00 13,3 9,9 28 15 36 20 SSW 1021,7 - 0,0
20.11.2017 16:00:00 13,4 10,4 23 13 36 20 SSW 1022,0 - 0,0
20.11.2017 15:00:00 13,5 10,5 25 13 36 20 SSW 1022,2 - 0,0
20.11.2017 14:00:00 13,5 10,3 25 14 36 20 S 1022,9 - 0,0
20.11.2017 13:00:00 13,5 10,3 21 12 39 21 S 1023,3 - 0,0
20.11.2017 12:00:00 13,5 9,9 23 13 36 19 S 1024,0 - 0,0
20.11.2017 11:00:00 13,2 9,6 24 13 33 18 SSW 1024,1 - 0,0
20.11.2017 10:00:00 12,8 9,1 21 11 35 19 SSW 1024,5 20 0,0
20.11.2017 09:00:00 12,6 9,4 18 10 36 19 SW 1024,0 - 0,0
20.11.2017 08:00:00 12,6 9,4 17 9 33 18 SW 1024,0 - 0,0
20.11.2017 07:00:00 12,3 9,3 16 9 32 18 SW 1024,0 - 0,0
20.11.2017 06:00:00 12,5 8,8 18 10 33 18 SSW 1024,0 - 0,0
20.11.2017 05:00:00 12,4 8,5 20 11 35 19 SSW 1024,3 - 0,0
20.11.2017 04:00:00 11,9 9,5 8 4 17 9 SW 1024,9 - 0,0
20.11.2017 03:00:00 10,6 9,5 6 3 9 5 S 1025,2 - 0,0
20.11.2017 02:00:00 10,2 8,8 5 3 10 5 W 1025,6 - 0,0
20.11.2017 01:00:00 10,6 8,9 6 3 9 5 W 1025,8 - 0,0
20.11.2017 00:00:00 10,7 9,0 5 3 12 7 WNW 1026,2 - 0,0
19.11.2017 23:00:00 11,2 9,1 6 4 17 9 WNW 1026,4 - 0,0
19.11.2017 22:00:00 11,6 9,5 13 7 17 9 W 1026,4 - 0,0
19.11.2017 21:00:00 11,3 9,4 8 4 17 9 NW 1026,5 - 0,0
19.11.2017 20:00:00 11,4 9,6 7 4 16 8 WNW 1026,4 - 0,0
19.11.2017 19:00:00 11,4 9,1 13 7 18 10 NW 1026,3 22 0,0
19.11.2017 18:00:00 11,7 9,4 8 5 22 12 NW 1025,6 - 0,0
19.11.2017 17:00:00 12,6 9,8 13 7 32 17 WNW 1025,7 - 0,0
19.11.2017 16:00:00 13,2 10,0 19 10 32 17 W 1025,3 25 0,0
19.11.2017 15:00:00 13,7 9,9 14 8 27 15 W 1025,5 - 0,0
19.11.2017 14:00:00 13,5 9,9 15 8 29 15 WNW 1026,0 - 0,0
19.11.2017 13:00:00 13,6 9,8 15 8 26 14 NW 1026,3 25 0,0
19.11.2017 12:00:00 13,2 9,8 15 8 28 15 NW 1026,7 - 0,0
19.11.2017 11:00:00 12,6 9,6 16 9 29 15 NW 1026,4 - 0,0
19.11.2017 10:00:00 11,6 9,5 18 10 26 14 NNW 1026,5 18 0,0
19.11.2017 09:00:00 9,7 8,5 13 7 17 9 NNW 1026,3 - 0,0
19.11.2017 08:00:00 9,1 8,0 11 6 19 10 NNW 1025,7 - 0,0
19.11.2017 07:00:00 9,7 8,5 15 8 20 11 N 1025,6 - 0,0
19.11.2017 06:00:00 10,8 8,7 13 7 23 12 N 1025,6 - 0,0
19.11.2017 05:00:00 11,5 9,2 10 5 22 12 NW 1025,8 - 0,0
19.11.2017 04:00:00 11,1 8,7 12 6 21 11 NW 1026,0 - 0,0
19.11.2017 03:00:00 11,0 7,5 9 5 24 13 WNW 1025,8 - 0,0
19.11.2017 02:00:00 10,7 8,3 10 6 19 10 NW 1026,2 - 0,0

tt = Température de l'air
td = dewpoint
ff = Vitesse du vent
fx = gusts
dd = Direction du vent
ppp = reduced air pressure
vv = visibility
rr = Quantités de précipitations

stations d'obs. à proximité